TimeCST,TemperatureF,Dew PointF,Humidity,Sea Level PressureIn,VisibilityMPH,Wind Direction,Wind SpeedMPH,Gust SpeedMPH,PrecipitationIn,Events,Conditions,WindDirDegrees,DateUTC
12:13 AM,6.8,3.2,85,29.78,10.0,Calm,Calm,-,N/A,,Overcast,0,2012-12-11 06:13:00
12:33 AM,8.6,6.8,92,29.78,10.0,Calm,Calm,-,N/A,,Overcast,0,2012-12-11 06:33:00
12:53 AM,8.6,6.8,92,29.77,10.0,Calm,Calm,-,N/A,,Overcast,0,2012-12-11 06:53:00
1:13 AM,6.8,5.0,92,29.77,10.0,Calm,Calm,-,N/A,,Overcast,0,2012-12-11 07:13:00
1:33 AM,6.8,3.2,85,29.77,10.0,Calm,Calm,-,N/A,,Mostly Cloudy,0,2012-12-11 07:33:00
1:53 AM,5.0,3.2,92,29.77,10.0,Calm,Calm,-,N/A,,Scattered Clouds,0,2012-12-11 07:53:00
2:13 AM,5.0,3.2,92,29.77,10.0,Calm,Calm,-,N/A,Snow,Light Snow,0,2012-12-11 08:13:00
2:33 AM,5.0,3.2,92,29.78,10.0,SW,3.5,-,N/A,,Mostly Cloudy,230,2012-12-11 08:33:00
2:53 AM,5.0,3.2,92,29.78,10.0,WSW,4.6,-,N/A,,Clear,250,2012-12-11 08:53:00
3:13 AM,6.8,6.8,100,29.78,10.0,WSW,4.6,-,N/A,,Mostly Cloudy,250,2012-12-11 09:13:00
3:33 AM,8.6,6.8,92,29.77,10.0,SW,3.5,-,N/A,,Overcast,230,2012-12-11 09:33:00
3:53 AM,8.6,6.8,92,29.77,10.0,WSW,4.6,-,N/A,,Overcast,250,2012-12-11 09:53:00
4:13 AM,8.6,6.8,92,29.77,10.0,WSW,3.5,-,N/A,,Mostly Cloudy,250,2012-12-11 10:13:00
4:33 AM,8.6,6.8,92,29.78,10.0,WSW,3.5,-,N/A,,Scattered Clouds,240,2012-12-11 10:33:00
4:53 AM,6.8,5.0,92,29.78,10.0,West,3.5,-,N/A,,Clear,260,2012-12-11 10:53:00
5:13 AM,6.8,6.8,100,29.78,10.0,West,3.5,-,N/A,,Clear,270,2012-12-11 11:13:00
5:33 AM,8.6,6.8,92,29.78,10.0,West,3.5,-,N/A,,Clear,270,2012-12-11 11:33:00
5:53 AM,8.6,6.8,92,29.78,10.0,Calm,Calm,-,N/A,,Clear,0,2012-12-11 11:53:00
6:13 AM,6.8,6.8,100,29.78,10.0,SW,3.5,-,N/A,,Clear,230,2012-12-11 12:13:00
6:33 AM,6.8,6.8,100,29.78,10.0,WSW,3.5,-,N/A,,Clear,250,2012-12-11 12:33:00
6:53 AM,6.8,6.8,100,29.79,10.0,Calm,Calm,-,N/A,,Scattered Clouds,0,2012-12-11 12:53:00
7:13 AM,8.6,6.8,92,29.79,10.0,Calm,Calm,-,N/A,,Overcast,0,2012-12-11 13:13:00
7:33 AM,8.6,8.6,100,29.80,10.0,West,3.5,-,N/A,,Overcast,270,2012-12-11 13:33:00
7:53 AM,10.4,8.6,92,29.80,10.0,West,3.5,-,N/A,,Overcast,260,2012-12-11 13:53:00
8:13 AM,10.4,8.6,92,29.80,10.0,West,3.5,-,N/A,,Overcast,260,2012-12-11 14:13:00
8:33 AM,10.4,10.4,100,29.81,10.0,Calm,Calm,-,N/A,,Overcast,0,2012-12-11 14:33:00
8:53 AM,12.2,10.4,92,29.81,10.0,Calm,Calm,-,N/A,,Overcast,0,2012-12-11 14:53:00
9:13 AM,12.2,10.4,92,29.82,10.0,SW,3.5,-,N/A,,Overcast,230,2012-12-11 15:13:00
9:33 AM,12.2,12.2,100,29.82,10.0,WSW,3.5,-,N/A,,Overcast,250,2012-12-11 15:33:00
9:53 AM,14.0,12.2,93,29.83,10.0,West,5.8,-,N/A,,Overcast,270,2012-12-11 15:53:00
10:12 AM,15.8,12.2,86,29.83,10.0,West,8.1,-,N/A,,Overcast,270,2012-12-11 16:12:00
10:33 AM,15.8,12.2,86,29.84,10.0,West,10.4,-,N/A,,Overcast,270,2012-12-11 16:33:00
11:13 AM,17.6,14.0,86,29.84,10.0,WNW,6.9,-,N/A,,Overcast,290,2012-12-11 17:13:00
11:33 AM,17.6,14.0,86,29.84,10.0,West,5.8,-,N/A,,Overcast,270,2012-12-11 17:33:00
11:53 AM,17.6,14.0,86,29.84,10.0,West,6.9,-,N/A,,Overcast,270,2012-12-11 17:53:00
12:13 PM,19.4,14.0,80,29.84,10.0,West,4.6,-,N/A,,Overcast,270,2012-12-11 18:13:00
12:33 PM,19.4,15.8,86,29.84,10.0,West,5.8,-,N/A,,Overcast,270,2012-12-11 18:33:00
12:53 PM,19.4,15.8,86,29.85,10.0,West,5.8,-,N/A,,Overcast,270,2012-12-11 18:53:00
1:13 PM,19.4,15.8,86,29.85,10.0,WNW,8.1,-,N/A,,Overcast,290,2012-12-11 19:13:00
1:33 PM,19.4,15.8,86,29.85,10.0,West,6.9,-,N/A,,Mostly Cloudy,280,2012-12-11 19:33:00
1:53 PM,19.4,15.8,86,29.85,10.0,West,6.9,-,N/A,,Scattered Clouds,270,2012-12-11 19:53:00
2:13 PM,19.4,14.0,80,29.85,10.0,West,8.1,-,N/A,,Clear,280,2012-12-11 20:13:00
2:33 PM,19.4,14.0,80,29.86,10.0,West,6.9,-,N/A,,Clear,270,2012-12-11 20:33:00
2:53 PM,17.6,12.2,79,29.87,10.0,West,6.9,-,N/A,,Scattered Clouds,280,2012-12-11 20:53:00
3:13 PM,17.6,12.2,79,29.87,10.0,West,8.1,-,N/A,,Scattered Clouds,280,2012-12-11 21:13:00
3:33 PM,17.6,12.2,79,29.88,10.0,West,5.8,-,N/A,,Scattered Clouds,280,2012-12-11 21:33:00
3:53 PM,17.6,12.2,79,29.88,10.0,West,5.8,-,N/A,,Scattered Clouds,270,2012-12-11 21:53:00
4:13 PM,15.8,12.2,86,29.89,10.0,West,4.6,-,N/A,,Overcast,270,2012-12-11 22:13:00
4:33 PM,15.8,10.4,79,29.90,10.0,West,5.8,-,N/A,,Overcast,270,2012-12-11 22:33:00
4:53 PM,15.8,10.4,79,29.90,10.0,Calm,Calm,-,N/A,,Mostly Cloudy,0,2012-12-11 22:53:00
5:13 PM,14.0,10.4,86,29.91,10.0,Calm,Calm,-,N/A,,Mostly Cloudy,0,2012-12-11 23:13:00
5:33 PM,12.2,10.4,92,29.91,10.0,WSW,3.5,-,N/A,,Overcast,240,2012-12-11 23:33:00
5:52 PM,12.2,10.4,92,29.91,10.0,Calm,Calm,-,N/A,,Overcast,0,2012-12-11 23:52:00
6:13 PM,12.2,10.4,92,29.92,10.0,Calm,Calm,-,N/A,,Scattered Clouds,0,2012-12-12 00:13:00
6:33 PM,10.4,10.4,100,29.93,10.0,WSW,3.5,-,N/A,,Unknown,250,2012-12-12 00:33:00
6:52 PM,10.4,8.6,92,29.93,10.0,WSW,3.5,-,N/A,,Unknown,240,2012-12-12 00:52:00
7:13 PM,10.4,8.6,92,29.93,10.0,Calm,Calm,-,N/A,,Clear,0,2012-12-12 01:13:00
7:33 PM,8.6,8.6,100,29.94,10.0,Calm,Calm,-,N/A,,Clear,0,2012-12-12 01:33:00
7:52 PM,8.6,8.6,100,29.94,10.0,WSW,4.6,-,N/A,,Clear,240,2012-12-12 01:52:00
8:13 PM,8.6,6.8,92,29.95,10.0,WSW,3.5,-,N/A,,Clear,240,2012-12-12 02:13:00
8:33 PM,6.8,6.8,100,29.95,7.0,Calm,Calm,-,N/A,,Clear,0,2012-12-12 02:33:00
8:52 PM,6.8,6.8,100,29.96,7.0,Calm,Calm,-,N/A,,Clear,0,2012-12-12 02:52:00
9:13 PM,6.8,5.0,92,29.95,7.0,Calm,Calm,-,N/A,,Scattered Clouds,0,2012-12-12 03:13:00
9:33 PM,5.0,3.2,92,29.95,10.0,Calm,Calm,-,N/A,,Scattered Clouds,0,2012-12-12 03:33:00
9:52 PM,3.2,3.2,100,29.96,2.0,Calm,Calm,-,N/A,,Clear,0,2012-12-12 03:52:00
10:13 PM,1.4,1.4,100,29.95,4.0,Calm,Calm,-,N/A,,Clear,0,2012-12-12 04:13:00
10:32 PM,1.4,-0.4,92,29.95,7.0,Calm,Calm,-,N/A,,Clear,0,2012-12-12 04:32:00
10:53 PM,3.2,1.4,92,29.96,7.0,Calm,Calm,-,N/A,,Clear,0,2012-12-12 04:53:00
11:13 PM,3.2,1.4,92,29.96,5.0,Calm,Calm,-,N/A,,Clear,0,2012-12-12 05:13:00
11:33 PM,3.2,3.2,100,29.96,5.0,Calm,Calm,-,N/A,,Clear,0,2012-12-12 05:33:00